User: anonymous   Login
Location: Unspecified
(0.0000°N, 0.0000°E)
Time: 23:26:18
(UTC+00:00)
Language:

FALCON 9 R/B - Orbit

View from above orbital plane
View from above orbital plane
View from above satellite
View from above satellite

Ground track
Ground track

The orbit data is extracted from the following two-line orbital elements,

1 41590U 16038C   20274.66825510 -.00000221 +00000-0 -18489-3 0  9995
2 41590 025.3418 023.8890 8183260 299.4511 004.6406 01.18358510018521
Epoch (UTC): 30 September 2020 16:02:17
Eccentricity: 0.8183260
inclination: 25.3418°
perigee height: 480 km
apogee height: 62266 km
right ascension of ascending node: 23.8890°
argument of perigee: 299.4511°
revolutions per day: 1.18358510
mean anomaly at epoch: 4.6406°
orbit number at epoch: 1852

The dashed part of the orbit path shows where the satellite is in the earth's shadow,  

DLR